Probability
0 0 0 0 0 0 0 0 0 0 0 0 0 0 0 0 0 0 0 3 13 16 19 32 45 42 42 29 29 29 26 29 29 29 19 16 16 26 23 26 26 26 26 26 23 16 16 19 16
0 0 0 0 0 0 0 0 0 0 0 0 0 0 0 0 0 0 0 3 16 16 16 13 42 45 39 23 26 23 26 29 29 29 23 23 23 26 26 26 26 26 23 23 23 16 16 19 10
0 0 0 0 0 0 0 0 0 0 0 0 0 0 0 0 0 0 0 6 16 16 13 16 42 39 35 23 23 23 26 29 29 26 23 23 23 26 26 23 26 19 19 19 19 16 16 13 10
0 0 0 0 0 0 0 0 0 0 0 0 0 0 0 0 0 0 0 3 16 16 13 19 35 39 35 26 23 23 23 26 26 29 26 23 29 26 23 19 23 19 19 23 19 13 13 10 10
0 0 0 0 0 0 0 0 0 0 0 0 0 0 0 0 0 0 3 3 19 16 13 19 35 32 32 26 23 23 23 23 23 23 26 26 26 26 19 19 19 19 19 19 16 13 10 10 13
0 0 0 0 0 0 0 0 0 0 0 0 0 0 0 0 0 0 3 3 16 16 13 19 32 32 26 23 26 23 23 26 23 23 23 26 19 19 19 19 19 19 13 10 13 10 6 6 3
0 0 0 0 0 0 0 0 0 0 0 0 0 0 0 0 0 0 3 6 16 16 16 16 10 13 16 19 23 19 23 23 26 23 19 23 16 19 16 19 16 16 10 10 10 10 3 0 0
0 0 0 0 0 0 0 0 0 0 0 0 0 0 0 0 0 0 3 6 16 16 19 10 10 6 6 6 13 13 13 13 19 19 6 6 6 10 10 10 10 13 10 10 10 3 0 0 0
0 0 0 0 0 0 0 0 0 0 0 0 0 0 0 0 0 3 3 10 16 13 16 13 6 6 3 3 3 10 6 10 3 0 0 0 6 6 3 3 3 6 6 10 6 3 0 0 0
0 0 0 0 0 0 0 0 0 0 0 0 0 0 0 0 3 3 3 10 13 16 16 6 6 6 3 3 3 3 3 3 0 0 0 0 0 3 3 0 0 3 3 3 3 0 0 0 0
0 0 0 0 0 0 0 0 0 0 0 0 0 0 0 0 3 3 3 3 10 13 16 10 6 3 3 3 3 3 3 3 3 3 0 0 0 0 0 0 0 0 0 0 0 0 0 0 0
0 0 0 0 0 0 0 0 0 0 0 0 0 0 0 0 3 3 3 6 10 13 10 10 3 3 3 3 3 3 3 3 3 3 3 0 0 0 3 0 0 0 0 0 0 0 0 0 0
0 0 0 0 0 0 0 0 0 0 0 0 0 0 0 0 0 3 3 3 3 6 6 6 3 3 3 3 3 3 3 3 3 3 0 0 0 0 3 0 0 0 0 0 0 0 0 0 0
0 0 0 0 0 0 0 0 0 0 0 0 0 0 0 0 0 0 3 3 3 6 6 6 3 3 3 3 3 3 3 3 3 3 0 0 0 0 0 0 0 0 0 0 0 0 0 0 0
0 0 0 0 0 0 0 0 0 0 0 0 0 0 0 0 0 0 0 0 3 3 6 3 3 3 3 3 3 3 3 3 3 3 0 0 0 0 0 0 0 0 0 0 0 0 0 0 0
0 0 0 0 0 0 0 0 0 0 0 0 0 0 0 0 0 0 0 0 0 3 3 3 3 3 3 3 3 3 3 3 3 3 0 0 0 0 0 0 0 0 0 0 0 0 0 0 0
0 0 0 0 0 0 0 0 0 0 0 0 0 0 0 0 0 0 0 0 0 0 3 0 3 3 3 3 3 3 3 3 3 3 0 3 0 0 0 0 0 0 0 0 0 0 0 0 0
0 0 0 0 0 0 0 0 0 0 0 0 0 0 0 0 0 0 0 0 0 0 0 0 3 3 3 3 3 3 3 3 3 3 0 3 0 0 0 0 0 0 0 0 0 0 0 0 0
0 0 0 0 0 0 0 0 0 0 0 0 0 0 0 0 0 0 0 0 0 0 0 0 0 0 3 3 3 3 0 3 3 3 3 0 0 0 0 0 0 0 0 0 0 0 0 0 0
0 0 0 0 0 0 0 0 0 0 0 0 0 0 0 0 0 0 0 0 0 0 0 3 0 0 3 3 3 0 0 0 3 3 3 0 3 0 0 0 0 0 0 0 0 0 0 0 0
0 0 0 0 0 0 0 0 0 0 0 0 0 0 0 0 0 0 0 0 0 0 0 0 3 3 0 3 3 0 3 0 0 0 0 0 3 3 0 0 0 0 0 0 0 0 0 0 0
0 0 0 0 0 0 0 0 0 0 0 0 0 0 0 0 0 0 0 0 0 0 0 0 3 3 3 0 3 0 0 0 0 0 0 0 0 3 0 0 0 0 0 0 0 0 0 0 0
0 0 0 0 0 0 0 0 0 0 0 0 0 0 0 0 0 0 0 0 0 0 0 0 0 0 3 3 3 0 0 0 0 3 3 0 0 0 0 0 0 0 0 0 0 0 0 0 0
0 0 0 0 0 0 0 0 0 0 0 0 0 0 0 0 0 0 0 0 0 0 0 0 0 0 0 3 3 0 0 0 0 0 0 0 0 0 0 0 0 0 0 0 0 0 0 0 0
0 0 0 0 0 0 0 0 0 0 0 0 0 0 0 0 0 0 0 0 0 0 0 0 0 0 0 0 3 0 0 0 0 0 0 0 0 0 0 0 0 0 0 0 0 0 0 0 0
0 0 0 0 0 0 0 0 0 0 0 0 0 0 0 0 0 0 0 0 0 0 0 0 0 0 0 0 0 0 0 0 0 0 0 0 0 0 0 0 0 0 0 0 0 0 0 0 0
0 0 0 0 0 0 0 0 0 0 0 0 0 0 0 0 0 0 0 0 0 0 0 0 0 0 0 0 0 0 0 0 0 0 0 0 0 0 0 0 0 0 0 0 0 0 0 0 0
0 0 0 0 0 0 0 0 0 0 0 0 0 0 0 0 0 0 0 0 0 0 0 0 0 0 0 0 0 0 0 0 0 0 0 0 0 0 0 0 0 0 0 0 0 0 0 0 0
0 0 0 0 0 0 0 0 0 0 0 0 0 0 0 0 0 0 0 0 0 0 0 0 0 0 0 0 0 0 0 0 0 0 0 0 0 0 0 0 0 0 0 0 0 0 0 0 0
0 0 0 0 0 0 0 0 0 0 0 0 0 0 0 0 0 0 0 0 0 0 0 0 0 0 0 0 0 0 0 0 0 0 0 0 0 0 0 0 0 0 0 0 0 0 0 0 0
Height
5777 5778 5778 5780 5781 5782 5784 5787 5788 5789 5791 5792 5794 5795 5796 5797 5799 5802 5802 5803 5804 5806 5807 5808 5809 5810 5812 5813 5815 5816 5817 5819 5820 5821 5823 5824 5825 5826 5827 5827 5829 5830 5831 5832 5833 5834 5835 5836 5837
5771 5772 5773 5774 5775 5777 5780 5782 5783 5785 5786 5788 5789 5790 5791 5792 5794 5795 5797 5798 5800 5802 5803 5804 5806 5807 5809 5810 5812 5813 5815 5816 5818 5819 5820 5821 5822 5823 5825 5825 5826 5827 5829 5830 5831 5832 5833 5834 5835
5765 5766 5767 5768 5769 5772 5776 5777 5779 5780 5781 5783 5784 5785 5786 5788 5789 5790 5792 5793 5795 5797 5799 5800 5802 5803 5805 5807 5808 5810 5811 5813 5814 5816 5817 5819 5820 5821 5822 5823 5824 5825 5826 5827 5828 5829 5830 5831 5833
5759 5760 5761 5762 5764 5768 5770 5772 5773 5773 5775 5777 5779 5780 5781 5783 5784 5785 5787 5788 5791 5792 5794 5796 5798 5800 5801 5803 5805 5806 5808 5810 5811 5813 5814 5816 5817 5818 5819 5821 5822 5823 5824 5824 5826 5826 5828 5829 5830
5752 5753 5754 5755 5759 5762 5764 5766 5767 5768 5770 5771 5773 5774 5776 5777 5778 5780 5782 5783 5785 5788 5789 5792 5794 5796 5797 5799 5801 5803 5804 5806 5808 5810 5811 5812 5814 5815 5816 5818 5819 5820 5821 5822 5823 5824 5825 5826 5827
5744 5746 5747 5749 5753 5756 5758 5760 5761 5762 5763 5765 5767 5768 5770 5771 5773 5775 5776 5778 5781 5783 5785 5787 5789 5791 5793 5795 5797 5799 5801 5803 5804 5806 5807 5809 5810 5812 5813 5815 5816 5817 5818 5819 5820 5821 5822 5823 5824
5738 5739 5740 5743 5745 5749 5752 5753 5754 5755 5757 5759 5760 5762 5763 5765 5767 5769 5771 5773 5775 5778 5780 5782 5784 5787 5789 5791 5793 5795 5797 5799 5801 5802 5804 5805 5807 5808 5810 5811 5812 5814 5815 5816 5817 5818 5819 5820 5821
5730 5732 5733 5736 5738 5742 5745 5746 5746 5748 5751 5752 5753 5755 5757 5759 5761 5763 5765 5767 5770 5772 5774 5777 5779 5782 5784 5786 5788 5791 5793 5795 5796 5798 5799 5801 5803 5804 5806 5807 5808 5810 5811 5812 5813 5814 5815 5816 5817
5723 5725 5726 5730 5731 5734 5737 5738 5740 5741 5743 5745 5746 5748 5750 5752 5754 5757 5759 5761 5764 5766 5769 5771 5774 5776 5779 5781 5783 5786 5788 5790 5792 5794 5795 5797 5799 5800 5802 5803 5805 5806 5807 5808 5809 5810 5811 5812 5813
5716 5718 5721 5723 5725 5726 5728 5730 5732 5734 5735 5738 5739 5741 5743 5746 5748 5751 5753 5755 5757 5760 5763 5765 5768 5771 5773 5776 5778 5781 5783 5785 5787 5789 5791 5792 5794 5796 5797 5799 5800 5802 5803 5804 5805 5806 5807 5808 5809
5709 5712 5714 5715 5717 5719 5720 5722 5724 5726 5728 5730 5731 5733 5736 5739 5741 5744 5746 5749 5751 5754 5757 5759 5762 5765 5768 5770 5772 5775 5777 5779 5781 5783 5785 5787 5789 5791 5792 5794 5795 5797 5798 5800 5801 5802 5802 5803 5804
5703 5705 5706 5707 5709 5711 5713 5715 5717 5718 5721 5723 5724 5725 5728 5731 5734 5736 5739 5742 5744 5747 5750 5753 5756 5758 5761 5764 5766 5769 5771 5773 5776 5778 5780 5782 5784 5786 5787 5789 5790 5792 5793 5795 5796 5797 5797 5798 5799
5695 5697 5698 5700 5701 5703 5705 5707 5709 5711 5713 5715 5716 5718 5720 5723 5726 5729 5732 5735 5737 5741 5743 5746 5749 5752 5754 5757 5760 5763 5765 5767 5769 5772 5774 5776 5778 5780 5782 5783 5785 5786 5788 5789 5790 5791 5792 5793 5793
5688 5689 5690 5692 5694 5696 5697 5699 5701 5704 5706 5707 5709 5711 5713 5716 5719 5722 5724 5727 5730 5733 5736 5739 5742 5745 5748 5750 5753 5756 5758 5761 5763 5765 5767 5769 5771 5774 5776 5777 5779 5780 5782 5783 5784 5785 5786 5787 5788
5681 5682 5683 5685 5686 5688 5689 5692 5694 5696 5698 5700 5701 5703 5705 5708 5711 5714 5716 5719 5722 5726 5728 5731 5734 5737 5740 5743 5746 5749 5751 5754 5756 5758 5760 5763 5765 5767 5769 5771 5772 5774 5775 5776 5777 5779 5780 5780 5782
5673 5674 5675 5678 5678 5679 5682 5684 5687 5688 5690 5692 5693 5695 5697 5700 5703 5706 5708 5711 5714 5718 5721 5724 5726 5730 5733 5736 5738 5741 5744 5746 5749 5751 5753 5756 5758 5760 5762 5764 5765 5767 5768 5770 5771 5772 5773 5774 5775
5666 5666 5667 5670 5670 5671 5672 5675 5678 5679 5681 5683 5685 5687 5689 5692 5695 5698 5700 5703 5706 5709 5712 5716 5718 5722 5725 5727 5731 5734 5736 5739 5741 5744 5746 5748 5751 5753 5755 5757 5758 5760 5761 5762 5764 5765 5766 5768 5769
5660 5660 5660 5661 5662 5663 5663 5666 5668 5670 5672 5674 5676 5679 5681 5684 5687 5689 5692 5695 5698 5701 5704 5707 5710 5713 5716 5719 5722 5725 5728 5731 5733 5736 5738 5741 5743 5745 5747 5749 5751 5752 5753 5755 5756 5758 5759 5761 5762
5653 5653 5653 5654 5654 5654 5655 5657 5659 5661 5663 5665 5667 5670 5673 5675 5678 5680 5683 5686 5689 5692 5695 5699 5702 5704 5707 5710 5714 5717 5719 5722 5725 5727 5730 5732 5735 5737 5739 5741 5743 5744 5746 5747 5749 5750 5752 5753 5755
5645 5645 5645 5646 5645 5645 5646 5648 5651 5652 5654 5656 5658 5661 5663 5666 5669 5672 5674 5677 5680 5683 5686 5689 5692 5695 5698 5702 5705 5708 5711 5713 5716 5718 5721 5724 5726 5728 5731 5732 5734 5736 5738 5739 5741 5742 5744 5746 5747
5637 5637 5637 5637 5637 5637 5637 5639 5642 5643 5645 5647 5649 5651 5654 5657 5659 5662 5664 5667 5670 5674 5677 5680 5683 5686 5689 5692 5695 5698 5700 5704 5707 5709 5712 5714 5717 5719 5722 5724 5725 5727 5729 5731 5732 5734 5736 5738 5739
5630 5630 5629 5628 5628 5628 5630 5629 5633 5635 5636 5638 5640 5642 5644 5647 5649 5652 5655 5657 5661 5664 5666 5669 5673 5676 5679 5682 5685 5688 5690 5694 5697 5700 5702 5705 5707 5710 5712 5714 5716 5718 5720 5722 5724 5726 5728 5729 5731
5622 5622 5621 5621 5620 5620 5621 5621 5624 5626 5628 5630 5632 5634 5636 5638 5640 5643 5645 5648 5651 5653 5656 5659 5662 5665 5668 5671 5674 5677 5680 5683 5686 5690 5692 5695 5697 5700 5702 5704 5706 5708 5711 5713 5715 5716 5718 5720 5722
5614 5614 5614 5613 5612 5612 5614 5613 5614 5618 5620 5623 5625 5626 5627 5629 5631 5633 5635 5638 5640 5643 5646 5649 5652 5654 5657 5660 5663 5666 5669 5672 5675 5679 5682 5685 5687 5690 5692 5695 5697 5699 5701 5703 5705 5707 5709 5710 5712
5608 5608 5607 5605 5604 5605 5607 5605 5607 5611 5613 5614 5616 5618 5619 5620 5621 5623 5625 5628 5630 5633 5635 5638 5640 5643 5646 5648 5651 5654 5656 5659 5663 5667 5671 5674 5677 5680 5682 5685 5687 5689 5691 5693 5695 5697 5699 5700 5702
5601 5600 5600 5599 5598 5598 5598 5598 5601 5603 5604 5605 5607 5608 5609 5611 5612 5614 5616 5617 5620 5622 5624 5627 5629 5632 5634 5637 5640 5643 5645 5648 5652 5656 5659 5663 5666 5669 5672 5674 5677 5679 5681 5683 5685 5686 5688 5690 5691
5594 5593 5594 5593 5591 5590 5590 5591 5593 5595 5596 5597 5598 5599 5600 5601 5602 5603 5605 5607 5609 5611 5613 5615 5618 5620 5623 5626 5629 5632 5634 5637 5641 5644 5648 5651 5654 5657 5660 5663 5665 5668 5670 5672 5674 5675 5677 5679 5680
5587 5586 5586 5584 5583 5582 5582 5584 5585 5587 5587 5588 5589 5590 5590 5591 5592 5593 5595 5596 5598 5599 5601 5603 5606 5609 5612 5615 5617 5620 5623 5626 5629 5633 5637 5640 5643 5646 5648 5651 5653 5656 5658 5660 5662 5664 5666 5667 5668
5580 5580 5578 5577 5576 5576 5574 5578 5578 5578 5579 5579 5580 5580 5581 5582 5582 5583 5584 5586 5587 5589 5590 5592 5595 5597 5600 5603 5606 5609 5612 5615 5619 5622 5626 5629 5632 5634 5636 5639 5641 5643 5646 5648 5650 5652 5653 5655 5656
5571 5572 5571 5571 5569 5568 5567 5571 5569 5570 5570 5570 5570 5571 5571 5572 5572 5573 5574 5575 5576 5578 5580 5582 5584 5586 5589 5592 5594 5597 5600 5604 5607 5611 5615 5617 5620 5622 5625 5627 5629 5631 5633 5635 5637 5639 5641 5642 5643
Wind_Speed
26 26 27 27 27 27 26 24 23 22 22 22 23 23 23 24 24 24 23 20 20 20 19 19 19 18 18 18 18 17 17 17 16 16 16 16 15 15 15 14 14 14 14 14 14 13 12 12 11
27 27 28 29 29 29 26 24 24 23 24 23 24 25 25 26 25 25 23 22 21 21 21 20 20 20 19 19 18 18 17 17 17 16 16 16 16 15 16 15 15 15 15 15 15 14 14 13 13
28 28 29 30 30 29 27 26 26 26 26 25 25 26 26 27 26 26 25 24 23 22 22 21 21 20 20 20 20 19 19 18 18 17 17 16 16 16 16 15 15 15 15 15 15 15 15 15 14
29 30 31 31 30 28 28 28 27 28 28 27 27 27 27 27 27 27 26 25 24 23 23 22 22 21 21 21 21 20 19 19 19 19 19 18 17 17 17 17 16 15 15 15 15 16 16 16 16
31 31 32 32 30 29 29 28 29 30 29 29 28 28 28 27 27 27 26 26 25 24 24 23 23 22 22 22 21 20 20 20 19 19 19 19 18 18 17 17 17 16 16 16 16 16 16 16 16
32 32 33 32 31 31 30 29 30 31 29 30 30 30 29 29 28 28 28 27 26 25 25 24 24 23 23 22 22 21 21 21 21 20 20 19 19 19 18 18 18 18 17 17 17 17 17 17 17
32 32 32 32 32 32 31 31 31 31 30 30 31 31 31 30 30 29 29 28 27 27 26 26 26 25 25 24 23 23 22 22 21 21 21 21 20 20 19 19 19 19 18 18 18 18 18 18 17
32 33 33 32 32 32 32 32 33 33 32 32 32 32 32 31 31 30 30 30 29 28 27 27 27 27 26 26 25 25 24 23 22 22 22 21 21 21 20 20 19 19 19 19 19 19 19 19 19
31 32 33 32 33 33 32 34 34 33 33 32 32 32 32 32 31 31 30 30 30 30 29 29 28 28 28 28 27 27 26 25 24 24 23 22 22 21 21 21 20 20 20 20 20 20 20 20 20
31 32 32 33 33 34 33 34 34 34 33 33 33 34 33 33 32 32 31 31 31 31 30 30 30 29 29 29 29 28 28 27 26 25 25 24 23 23 22 22 22 21 21 20 20 21 21 21 21
31 32 32 32 33 34 33 33 33 34 34 33 34 34 34 34 33 33 32 32 32 32 31 31 31 31 31 30 30 29 29 28 27 27 26 26 25 25 24 24 24 23 22 22 22 22 22 22 22
32 31 33 33 33 33 34 33 34 34 34 34 34 35 35 35 34 33 33 32 33 33 33 32 32 32 32 31 30 30 30 29 29 28 28 27 27 27 26 26 25 25 24 24 24 23 23 23 23
31 31 32 33 33 32 34 34 34 34 34 33 34 34 36 36 36 35 34 34 34 34 34 34 34 34 33 31 31 31 30 30 30 29 29 28 28 28 27 27 27 26 26 26 25 25 25 25 25
30 30 31 32 33 33 33 34 35 33 33 32 33 34 35 36 36 35 35 35 35 35 34 34 35 35 34 33 33 32 32 32 31 30 30 29 29 29 29 28 28 27 27 27 27 27 27 27 26
30 31 31 32 33 33 35 35 34 33 33 33 33 34 35 36 36 36 36 36 36 36 35 35 36 36 35 34 34 33 33 32 32 31 31 30 30 30 29 29 28 28 29 28 29 28 28 28 28
30 31 32 31 33 33 35 35 34 35 35 34 34 35 35 36 36 36 36 36 37 36 36 36 36 37 37 36 35 34 35 33 33 33 32 31 31 31 31 30 30 29 30 30 30 29 28 28 28
30 31 31 32 33 33 35 35 35 36 36 36 35 35 35 35 36 37 36 36 37 38 37 37 36 37 37 37 36 36 36 36 34 34 33 33 33 32 32 32 31 31 30 30 30 30 29 29 29
30 30 31 32 32 33 35 35 35 36 36 36 36 35 35 35 36 37 37 37 38 39 38 38 38 37 38 38 38 38 38 37 36 35 35 35 34 33 33 33 33 32 32 31 32 32 31 31 30
30 31 31 32 33 34 34 35 35 36 35 35 36 36 36 36 36 37 37 37 38 39 39 39 39 39 39 39 39 39 39 39 38 37 37 36 36 35 35 34 34 34 34 33 33 33 33 32 32
30 31 32 32 33 35 35 34 34 35 36 35 35 36 37 37 37 37 38 38 38 39 40 41 41 41 41 40 40 40 41 40 40 39 38 38 38 37 37 36 35 35 35 35 34 34 34 34 33
30 31 31 32 33 34 36 36 34 34 35 35 34 35 36 36 37 37 38 38 38 39 39 41 41 42 42 42 41 42 42 42 42 41 40 39 40 39 38 38 37 37 37 36 36 36 35 35 36
29 29 30 31 32 33 34 36 34 34 34 34 34 34 34 35 36 37 37 38 39 39 40 41 42 42 43 44 43 43 44 43 43 43 42 41 41 41 40 39 39 39 39 38 38 38 37 37 37
28 28 28 29 31 33 33 35 34 33 34 34 34 34 34 34 35 37 37 38 39 40 40 42 42 44 44 44 45 44 45 45 45 44 43 42 42 42 42 41 40 40 41 40 40 40 40 39 39
27 28 27 28 29 31 31 33 34 32 33 34 34 34 35 34 35 36 37 38 39 40 41 42 43 43 44 44 45 46 46 47 47 46 46 44 43 43 43 42 41 42 41 41 41 42 42 42 41
27 27 27 27 28 31 30 33 33 31 32 33 34 34 35 36 36 36 36 37 38 39 41 42 42 43 44 45 45 45 46 46 47 47 47 46 45 45 44 44 43 43 43 43 43 43 44 43 42
26 27 28 29 30 30 30 32 32 31 31 32 33 34 34 36 37 37 36 37 38 39 41 42 43 43 44 44 44 45 45 46 47 48 48 47 47 46 46 46 45 45 44 45 45 45 45 45 44
26 27 27 28 30 31 32 32 32 31 31 32 33 34 35 36 37 37 36 37 38 39 41 42 43 43 43 44 45 45 45 45 46 47 48 48 48 47 47 47 48 46 46 47 47 47 47 46 45
27 26 26 26 28 30 32 32 32 31 32 32 33 34 34 35 37 37 36 37 37 38 39 41 43 43 43 44 44 45 46 46 46 47 47 47 47 47 47 48 48 48 47 47 47 48 48 47 47
27 27 28 27 28 29 30 31 31 31 32 32 32 33 34 35 35 36 36 37 38 38 39 40 42 43 44 44 44 45 46 46 47 47 46 46 46 46 47 48 48 48 48 47 47 47 48 48 48
28 28 28 28 30 30 31 31 30 31 31 31 32 33 34 35 36 36 37 36 37 38 39 41 42 43 44 45 45 45 45 46 47 47 46 46 46 47 47 47 48 48 48 48 48 49 49 49 48
Wind_Direction
252 251 250 249 248 248 250 252 253 253 254 254 253 252 253 253 253 255 255 254 251 249 248 247 247 246 244 242 240 240 241 241 242 243 244 244 245 243 242 243 240 239 242 245 245 247 245 245 245
251 250 249 249 250 251 252 253 254 255 255 254 253 251 251 252 253 254 254 253 251 249 248 247 246 245 244 242 240 240 241 242 243 244 244 245 245 245 245 245 242 243 245 248 247 248 249 249 249
252 251 250 250 251 253 253 255 256 255 255 254 253 252 251 252 253 252 252 251 250 249 247 246 245 244 244 244 243 241 242 243 244 243 243 244 245 245 246 247 245 245 246 246 247 249 251 252 251
253 252 251 251 252 254 255 255 256 256 255 254 253 252 252 251 251 252 251 250 248 247 247 245 244 244 244 244 244 244 243 245 245 243 243 245 247 248 248 248 248 247 249 250 251 251 253 252 252
254 252 252 251 252 253 254 256 256 255 255 254 252 252 251 251 251 251 250 249 247 246 246 244 243 243 243 243 243 241 243 245 245 245 245 245 246 246 248 249 249 250 249 249 250 252 252 253 253
253 252 251 252 252 253 253 254 255 255 254 254 253 253 252 251 251 251 249 249 247 245 245 243 242 241 242 242 241 241 242 244 245 246 246 246 247 247 248 249 250 250 250 250 250 251 251 252 251
252 252 252 253 253 253 253 252 252 253 254 254 253 253 252 251 250 249 248 248 248 245 244 244 242 241 241 241 241 242 243 245 245 246 246 246 246 248 249 250 250 251 251 251 252 252 251 250 249
254 253 252 252 253 253 253 252 252 253 253 254 254 253 251 251 249 248 247 247 246 245 243 243 242 241 241 241 241 241 243 245 245 246 247 248 247 247 248 250 251 252 253 253 254 254 253 252 251
254 254 253 252 253 253 252 251 251 252 252 252 254 253 251 249 248 247 247 247 246 245 243 242 242 241 242 242 242 242 244 245 247 247 248 249 249 248 249 251 252 252 253 254 255 256 256 255 254
254 254 255 254 254 253 252 252 252 252 251 251 252 252 250 249 248 247 247 247 245 244 243 242 242 242 242 242 243 243 244 245 246 247 247 248 249 249 250 252 253 254 254 255 256 259 259 259 259
255 255 254 254 254 253 253 253 253 253 252 251 252 251 249 248 248 248 248 246 244 243 242 242 242 243 243 243 242 243 245 246 247 247 247 247 248 249 252 253 254 255 256 257 257 259 258 258 260
256 255 253 252 253 254 253 253 254 254 254 253 252 250 249 247 247 247 247 247 244 242 242 241 241 242 243 242 241 242 244 246 247 247 247 248 249 251 252 253 255 256 256 257 257 258 258 258 260
257 256 254 253 253 254 254 253 254 254 255 255 253 251 249 248 247 247 247 247 245 243 243 242 242 242 243 242 241 242 243 245 246 247 248 249 249 251 252 253 255 256 257 257 259 259 260 260 260
260 258 256 254 253 255 255 254 254 254 253 254 254 252 249 249 248 248 248 247 246 244 243 242 242 242 242 243 243 243 244 245 246 247 248 249 250 251 251 253 255 256 257 258 258 259 260 259 260
263 260 257 256 256 256 255 254 254 254 255 254 254 253 251 250 248 247 248 247 245 244 244 242 241 241 242 242 243 243 244 245 246 246 248 250 250 250 252 253 254 256 256 257 258 258 259 260 261
265 264 261 257 257 257 256 255 254 254 254 254 254 254 252 251 249 247 247 247 245 244 244 242 242 242 242 242 242 243 243 244 246 246 248 249 250 251 252 254 254 256 257 259 259 258 258 260 260
267 267 265 262 258 257 256 257 255 254 254 253 253 252 252 251 250 248 248 247 245 244 243 243 242 242 242 242 242 243 244 244 245 246 247 249 250 252 253 254 255 256 258 259 259 258 258 259 258
271 269 267 264 260 258 257 256 255 253 254 253 252 252 251 251 250 249 248 247 246 244 244 243 243 243 242 242 243 242 243 244 245 246 247 248 250 252 253 254 255 256 257 257 257 257 257 258 258
272 269 268 266 263 260 258 256 256 254 254 253 252 251 251 251 251 250 249 248 247 245 243 243 243 244 244 244 243 244 244 244 245 245 247 248 250 251 253 255 255 255 256 257 257 256 257 258 258
272 271 269 268 265 263 260 257 256 255 253 252 252 251 251 251 251 250 250 249 247 244 243 243 243 243 244 245 245 245 245 245 246 246 247 249 250 252 253 255 255 256 256 256 256 256 257 257 258
271 272 271 269 266 264 262 260 256 255 254 253 252 251 251 250 250 250 250 249 246 244 244 243 243 244 245 246 246 245 245 245 246 246 248 249 250 252 253 254 255 256 255 255 255 255 256 257 259
273 273 272 270 267 265 263 263 257 255 254 254 253 253 253 252 251 250 250 249 248 246 245 243 244 245 246 246 246 246 245 245 246 247 248 249 250 251 252 253 254 254 255 255 255 256 256 258 260
275 274 272 270 268 266 263 265 261 257 256 254 254 255 255 253 252 251 251 250 250 248 246 245 245 246 246 247 247 247 247 245 246 247 248 249 250 251 252 253 253 254 255 256 257 258 257 258 260
274 273 272 270 268 268 266 265 263 259 259 257 256 256 256 255 254 253 253 252 251 250 248 247 246 247 247 248 248 247 247 246 246 246 248 250 251 251 253 252 253 254 255 256 257 258 259 260 261
273 273 271 270 268 269 269 265 264 261 260 259 259 259 258 258 256 255 254 254 253 252 251 249 248 248 248 248 247 246 246 246 246 246 247 249 251 252 253 253 254 255 256 257 258 259 260 261 262
272 272 271 271 271 271 269 267 266 263 261 260 259 260 261 260 258 256 256 256 255 254 252 251 249 248 248 248 248 247 247 247 247 247 247 249 251 252 254 254 255 256 256 257 258 259 260 261 262
274 271 271 273 273 272 270 269 266 265 264 262 260 260 262 262 261 259 258 257 256 255 253 251 249 248 247 247 247 247 249 248 248 247 247 249 250 252 254 255 256 256 257 258 259 259 260 261 262
273 272 271 271 273 272 271 269 268 267 266 266 263 261 262 262 262 260 258 257 256 254 253 251 249 248 248 248 247 248 249 248 248 248 249 250 251 252 254 255 256 256 257 258 259 259 260 261 262
273 270 270 270 270 272 272 272 271 271 270 268 266 263 263 263 262 261 259 258 257 255 253 252 251 250 249 249 249 248 248 248 248 249 250 252 253 254 256 256 256 256 257 258 259 260 261 262 263
272 271 271 271 271 270 273 273 273 272 272 271 268 265 264 263 262 262 260 259 257 255 253 252 252 251 250 250 251 250 249 249 249 249 251 253 254 255 257 257 257 257 257 258 259 260 261 262 263